Tracking 28920 objects as of 27-May-2024
HD Live streaming from Space Station
objects crossing your sky now

BB 2

Track BB 2 now!
10-day predictions


NORAD ID: 56170
Int'l Code: 2023-050J
Perigee: 966.0 km
Apogee: 980.6 km
Inclination: 81.0 °
Period: 104.4 minutes
Semi major axis: 7344 km
RCS: Unknown
Launch date: April 2, 2023
Source: United States (US)
Launch site: AIR FORCE WESTERN TEST RANGE (AFWTR)
Your satellite tracking list
Your tracking list is empty




NASA's NSSDC Master Catalog

Two Line Element Set (TLE):
1 56170U 23050J   24147.58188344  .00000322  00000-0  30277-3 0  9997
2 56170  81.0031  75.7831 0009936 139.8409 220.3481 13.79349703 57857
Source of the keplerian elements: AFSPC